Regional Weather Roundup
Issued by NWS

Home | Current Version | Previous Version | Graphics & Text | Print | Product List | Glossary On
Versions: 1 2 3 4 5 6 7 8 9 10 11 12 13 14 15 16 17 18 19 20 21 22 23 24 25 26 27 28 29 30 31 32 33 34 35 36 37 38 39 40 41 42 43 44 45 46 47 48 49 50
000
ASUS43 KLOT 291801
RWRIL

ILLINOIS REGIONAL WEATHER ROUNDUP
NATIONAL WEATHER SERVICE CHICAGO/ROMEOVILLE IL
100 PM CDT WED JUL 29 2015

NOTE: "FAIR" INDICATES FEW OR NO CLOUDS BELOW 12,000 FEET WITH NO
SIGNIFICANT WEATHER AND/OR OBSTRUCTIONS TO VISIBILITY.

* THESE STATIONS ARE NOT UNDER NWS QUALITY CONTROL. THEY ALSO MAY NOT
  REPORT WEATHER SUCH AS PRECIPITATION OR FOG.

ILZ001-002-007-009-015-016-024-291900-
NORTHWEST ILLINOIS

CITY           SKY/WX    TMP DP  RH WIND       PRES   REMARKS
MOLINE         FAIR      84  55  36 W13       30.06S HX  83
6HR MIN TEMP:  74; 6HR MAX TEMP:  85;

STERLING*      FAIR      84  61  45 NW13      30.03S HX  84
$$

ILZ003-004-008-010-011-017-018-291900-
NORTH CENTRAL ILLINOIS

CITY           SKY/WX    TMP DP  RH WIND       PRES   REMARKS
ROCKFORD       FAIR      84  53  34 W13G20    30.03F HX  82
6HR MIN TEMP:  75; 6HR MAX TEMP:  85;

$$

ILZ005-006-012>014-019>023-291900-
NORTHEAST ILLINOIS

CITY           SKY/WX    TMP DP  RH WIND       PRES   REMARKS
CHICAGO-OHARE  PTSUNNY   85  58  39 NW16G24   29.99R HX  84
6HR MIN TEMP:  76; 6HR MAX TEMP:  86;

CHICAGO-MIDWAY PTSUNNY   89  56  32 NW13      29.98S HX  87
6HR MIN TEMP:  78; 6HR MAX TEMP:  89;

AURORA         SUNNY     83  58  42 NW14      30.02R HX  83
6HR MIN TEMP:  74; 6HR MAX TEMP:  83;

LANSING*       PTSUNNY   83  71  64 N5        29.99R HX  88
WAUKEGAN       MOSUNNY   83  59  44 W10       29.98S HX  83
6HR MIN TEMP:  75; 6HR MAX TEMP:  84;

DUPAGE AIRPORT MOSUNNY   85  59  41 NW16      30.00S HX  84
6HR MIN TEMP:  74; 6HR MAX TEMP:  85;

WHEELING       SUNNY     85  60  42 W14       30.00R HX  85
6HR MIN TEMP:  76; 6HR MAX TEMP:  86;

NORTHERLY ISL    N/A     80  66  62 NE7         N/A  HX  82
$$

LMZ740>746-291900-
SOUTHERN LAKE MICHIGAN

STATION/POSITION SKY/WX   TEMP    WIND        PRES    VSBY  WAVE
                          AIR SEA DIR/SP/G                  HT/PER
                          (F)     (DEG/KT/KT) (MB)    (MI)  (FT/S)
HARRISON CRIB              77     360/  9/ 12   N/A
BURNHAM HARBOR             82     320/  8/ 11   N/A
CALUMET HARBOR             80     360/  4/  8   N/A
BURNS HARBOR               76     330/  7/  9 1015.9R
MICHIGAN CITY              76     280/ 10/ 12   N/A
MICHIGAN CITY 6N           76 75  320/ 10/ 12   N/A           1
ST. JOSEPH                 75 75  320/  6/  8   N/A           1/ 3
$$

ILZ025>027-034>036-040-047-049-050-058-095>099-291900-
WEST-CENTRAL ILLINOIS

CITY           SKY/WX    TMP DP  RH WIND       PRES   REMARKS
QUINCY         FAIR      84  65  52 N8        30.09R HX  86
MACOMB*        FAIR      83  63  50 N9        30.10S HX  84
$$

ILZ028>032-037-038-041>044-048-051>054-059>061-291900-
CENTRAL ILLINOIS

CITY           SKY/WX    TMP DP  RH WIND       PRES   REMARKS
DECATUR        PTSUNNY   88  76  67 N13       30.03S HX  99
PEORIA         FAIR      86  63  45 N9        30.05S HX  87
6HR MIN TEMP:  77; 6HR MAX TEMP:  87;

SPRINGFIELD    FAIR      87  75  67 N12       30.04S HX  96
6HR MIN TEMP:  78; 6HR MAX TEMP:  87;

TAYLORVILLE    NOT AVBL
$$

ILZ033-039-045-046-055>057-062-063-291900-
EAST-CENTRAL ILLINOIS

CITY           SKY/WX    TMP DP  RH WIND       PRES   REMARKS
CHAMPAIGN      MOSUNNY   84  76  76 NW6       30.03R HX  93
MATTOON        FAIR      86  77  74 N10       30.01S HX  97
$$

ILZ079-100>102-291900-
SOUTHWEST ILLINOIS

CITY           SKY/WX    TMP DP  RH WIND       PRES   REMARKS
ALTON          MOSUNNY   82  73  74 NW6       30.04F HX  88
BELLEVILLE     PTSUNNY   86  77  75 N8        30.02F HX  98
CAHOKIA*       FAIR      89  72  56 N12       30.04F HX  96
SPARTA*        FAIR      89  78  69 N13       30.03R HX 102
$$

ILZ064>066-069>071-074>076-080>082-084>086-088>090-092>094-291900-
SOUTH-CENTRAL ILLINOIS

CITY           SKY/WX    TMP DP  RH WIND       PRES   REMARKS
CARBONDALE     FAIR      92  79  65 W8        30.00S HX 108
6HR MIN TEMP:  77; 6HR MAX TEMP:  92;

MARION         PTSUNNY   93  79  62 NW9       30.00F HX 110
MT. VERNON     PTSUNNY   91  75  59 W5        30.00R HX 102
SALEM*         FAIR      85  76  74 NW10      30.03R HX  95
$$

ILZ067-068-072-073-078-083-087-091-291900-
SOUTHEAST ILLINOIS

CITY           SKY/WX    TMP DP  RH WIND       PRES   REMARKS
LAWRENCEVILLE  PTSUNNY   88  78  72 SW5       29.99S HX 101
HARRISBURG*    FAIR      93  78  60 W6        29.99F HX 108
$$

ABBREVIATIONS USED IN REMARKS
   TC - TEMPERATURE IN CELSIUS
  WCI - WIND CHILL INDEX
   HX - HEAT INDEX
  VSB - VISIBILITY
$$



USA.gov is the U.S. government's official web portal to all federal, state and local government web resources and services.